Regional Weather Roundup
Issued by NWS

Home | Current Version | Previous Version | Graphics & Text | Print | Product List | Glossary On
Versions: 1 2 3 4 5 6 7 8 9 10 11 12 13 14 15 16 17 18 19 20 21 22 23 24 25 26 27 28 29 30 31 32 33 34 35 36 37 38 39 40 41 42 43 44 45 46 47 48 49 50
000
ASUS43 KLMK 192110
RWRKY
KENTUCKY REGIONAL WEATHER ROUNDUP
NATIONAL WEATHER SERVICE LOUISVILLE KY
500 PM EDT SAT APR 19 2014

NOTE "FAIR" INDICATES FEW OR NO CLOUDS BELOW 12,000 FEET
WITH NO SIGNIFICANT WEATHER AND/OR OBSTRUCTIONS TO VISIBILITY.

KYZ001>023-026-027-061>063-070>075-192200-
WESTERN AND SOUTH CENTRAL KENTUCKY

CITY           SKY/WX    TMP DP  RH WIND       PRES   REMARKS
PADUCAH        SUNNY     78  39  24 E7        30.15F
HENDERSON      SUNNY     72  43  35 E5        30.18F
OWENSBORO      SUNNY     74  36  25 NE7       30.18F
HOPKINSVILLE   SUNNY     75  39  27 VRB2      30.15F
BOWLING GREEN  SUNNY     75  37  25 NE5       30.15F
GLASGOW        SUNNY     74  39  28 E14       30.16F
$$

KYZ024-025-028>034-038-045-046-053-192200-
NORTH CENTRAL KENTUCKY

CITY           SKY/WX    TMP DP  RH WIND       PRES   REMARKS
LOUISVILLE/SDF MOSUNNY   74  36  25 E8        30.19F
LOUISVILLE/LOU SUNNY     75  36  24 NE10      30.20S
FORT KNOX      SUNNY     73  35  24 E10G17    30.18S
$$

KYZ035>037-039>044-047>052-055>060-089>105-192200-
NORTHEAST KENTUCKY

CITY           SKY/WX    TMP DP  RH WIND       PRES   REMARKS
LEXINGTON      SUNNY     72  36  26 NE9G23    30.20F
COVINGTON      SUNNY     69  36  29 NE12      30.23F
FRANKFORT      SUNNY     72  35  25 E10G16    30.19F
$$

KYZ054-064>069-076>088-106>120-192200-
SOUTHEAST KENTUCKY

CITY           SKY/WX    TMP DP  RH WIND       PRES   REMARKS
JACKSON        SUNNY     73  33  23 CALM      30.16F
LONDON         MOSUNNY   75  35  23 NE13G20   30.14F
SOMERSET       SUNNY     72  34  25 NE13G22   30.15F
MIDDLESBORO    PTSUNNY   74  37  25 NE9       30.12S
MONTICELLO     PTCLDY    73  39  29 N10       30.16F
$$




USA.gov is the U.S. government's official web portal to all federal, state and local government web resources and services.